Flag for Denmark Weather past 2 weeks in Horsens, Denmark

Now
77 °F

Sunny.


Feels Like: 79 °F
Forecast: 65 / 81 °F
Wind: 15 mph from East

Location: Billund Lufthavn

Current Time: Jul 25, 2014 at 9:18:23 PM

Latest Report: Jul 25, 2014 at 8:50 PM


Visibility: 10 mi

Pressure: 30.07 "Hg

Humidity: 47%

Dew point: 55 °F

Location of HorsensLocation

Historic Weather in Horsens — Graph

°F

Horsens temperature yesterday

Maximum temperature yesterday: 82 °F (at 3:20 PM)
Minimum temperature yesterday: 57 °F (at 4:20 AM)
Average temperature yesterday: 71 °F

Past Weeks' High & Low Weather Summary

 TemperatureHumidityPressure
High82 °F (Jul 19, 1:50 PM)100% (Jul 12, 4:50 AM)30.27 "Hg (Jul 12, 4:50 AM)
Low46 °F (Jul 16, 4:50 AM)30% (Jul 23, 3:50 PM)29.50 "Hg (Jul 14, 3:20 AM)
Average67 °F70%30.02 "Hg
* Reported Jul 10 7:20 PM — Jul 25 7:50 PM, Horsens, Weather by CustomWeather, © 2014

Note: Actual official high and low records may vary slightly from our data, if they occured in-between our weather recording intervals... More about our weather records

Advertising

Horsens weather history for previous 24 hours

 ConditionsComfort  
Time TempWeatherWind HumidityBarometerVisibility
7:50 PM
Jul 25
79 °FSunny.10 mph39%30.07 "Hg10 mi
7:20 PM81 °FPassing clouds.9 mph37%30.07 "HgN/A
6:50 PM81 °FSunny.13 mph39%30.07 "Hg10 mi
6:20 PM81 °FSunny.14 mph37%30.04 "Hg10 mi
5:50 PM82 °FPassing clouds.12 mph35%30.07 "HgN/A
5:20 PM82 °FPassing clouds.12 mph35%30.07 "HgN/A
4:50 PM82 °FPassing clouds.12 mph35%30.07 "HgN/A
4:20 PM82 °FPassing clouds.13 mph35%30.07 "HgN/A
3:50 PM82 °FPassing clouds.13 mph35%30.07 "HgN/A
3:20 PM82 °FPassing clouds.12 mph37%30.07 "HgN/A
2:20 PM82 °FPassing clouds.10 mph35%30.09 "HgN/A
1:50 PM81 °FPassing clouds.10 mph37%30.09 "HgN/A
1:20 PM81 °FPassing clouds.10 mph37%30.09 "HgN/A
12:50 PM81 °FPassing clouds.10 mph39%30.09 "HgN/A
12:20 PM81 °FPassing clouds.13 mph37%30.09 "HgN/A
11:50 AM79 °FPassing clouds.12 mph39%30.09 "HgN/A
11:20 AM79 °FPassing clouds.14 mph42%30.09 "HgN/A
10:50 AM77 °FSunny.13 mph44%30.12 "Hg10 mi
10:20 AM75 °FPassing clouds.10 mph50%30.12 "HgN/A
9:50 AM75 °FPassing clouds.8 mph57%30.12 "HgN/A
9:20 AM73 °FPassing clouds.8 mph65%30.12 "HgN/A
8:50 AM72 °FPassing clouds.7 mph69%30.09 "HgN/A
8:20 AM72 °FSunny.6 mph69%30.12 "Hg10 mi
7:50 AM70 °FPassing clouds.6 mph73%30.12 "HgN/A
7:20 AM68 °FPassing clouds.5 mph73%30.12 "HgN/A
6:50 AM61 °FSunny.1 mph88%30.12 "Hg10 mi
6:20 AM61 °FSunny.No wind88%30.12 "Hg10 mi
5:50 AM59 °FClear.2 mph94%30.12 "Hg10 mi
5:20 AM59 °FClear.No wind94%30.12 "Hg10 mi
4:50 AM61 °FClear.1 mph88%30.12 "Hg10 mi
4:20 AM61 °FClear.1 mph88%30.12 "Hg10 mi
3:50 AM63 °FClear.No wind88%30.12 "Hg10 mi
3:20 AM63 °FClear.No wind88%30.12 "Hg10 mi
2:50 AM63 °FClear.1 mph88%30.12 "Hg10 mi
2:20 AM64 °FClear.2 mph88%30.12 "Hg10 mi
1:50 AM64 °FClear.3 mph88%30.12 "Hg10 mi
1:20 AM64 °FClear.5 mph83%30.15 "Hg10 mi
12:50 AM63 °FClear.7 mph83%30.15 "Hg10 mi
12:20 AM64 °FClear.6 mph78%30.12 "Hg10 mi
11:50 PM
Jul 24
64 °FClear.6 mph73%30.15 "Hg10 mi
11:20 PM66 °FClear.5 mph68%30.15 "Hg10 mi
10:50 PM66 °FClear.6 mph68%30.15 "Hg10 mi
10:20 PM66 °FSunny.5 mph68%30.12 "Hg10 mi
9:50 PM68 °FSunny.6 mph64%30.12 "Hg10 mi
9:20 PM70 °FSunny.7 mph60%30.12 "Hg10 mi
Weather by CustomWeather, © 2014

See weather overviewHow to use our weather pages